Time,TemperatureF,DewpointF,PressureIn,WindDirection,WindDirectionDegrees,WindSpeedMPH,WindSpeedGustMPH,Humidity,HourlyPrecipIn,Conditions,Clouds,dailyrainin,SoftwareType,DateUTC
2013-03-26 00:02:00,18.0,16.0,-100.00,NNW,345,8.0,10.0,91,0.00,,,0.00,,2013-03-26 05:02:00,
2013-03-26 00:12:00,17.0,14.0,-100.00,North,355,7.0,9.0,91,0.00,,,0.00,,2013-03-26 05:12:00,
2013-03-26 00:22:00,17.0,16.0,-100.00,North,355,6.0,7.0,92,0.00,,,0.00,,2013-03-26 05:22:00,
2013-03-26 00:32:00,18.0,16.0,-100.00,North,355,9.0,10.0,93,0.00,,,0.00,,2013-03-26 05:32:00,
2013-03-26 00:42:00,18.0,16.0,-100.00,North,350,8.0,11.0,94,0.00,,,0.00,,2013-03-26 05:42:00,
2013-03-26 00:52:00,17.0,16.0,-100.00,North,350,9.0,10.0,94,0.00,,,0.00,,2013-03-26 05:52:00,
2013-03-26 01:02:00,15.0,14.0,-100.00,North,350,9.0,9.0,94,0.00,,,0.00,,2013-03-26 06:02:00,
2013-03-26 01:12:00,16.0,14.0,-100.00,North,350,9.0,11.0,95,0.00,,,0.00,,2013-03-26 06:12:00,
2013-03-26 01:22:00,17.0,16.0,-100.00,North,355,8.0,12.0,95,0.00,,,0.00,,2013-03-26 06:22:00,
2013-03-26 01:32:00,16.0,16.0,-100.00,North,350,7.0,9.0,95,0.00,,,0.00,,2013-03-26 06:32:00,
2013-03-26 01:42:00,16.0,16.0,-100.00,NNW,345,9.0,11.0,95,0.00,,,0.00,,2013-03-26 06:42:00,
2013-03-26 01:52:00,15.0,14.0,-100.00,NNW,345,9.0,10.0,95,0.00,,,0.00,,2013-03-26 06:52:00,
2013-03-26 02:02:00,16.0,14.0,-100.00,North,355,7.0,10.0,95,0.00,,,0.00,,2013-03-26 07:02:00,
2013-03-26 02:12:00,15.0,14.0,-100.00,North,350,8.0,11.0,95,0.00,,,0.00,,2013-03-26 07:12:00,
2013-03-26 02:22:00,16.0,14.0,-100.00,North,0,9.0,11.0,95,0.00,,,0.00,,2013-03-26 07:22:00,
2013-03-26 02:32:00,16.0,16.0,-100.00,North,355,9.0,11.0,95,0.00,,,0.00,,2013-03-26 07:32:00,
2013-03-26 02:42:00,16.0,16.0,-100.00,North,355,8.0,11.0,95,0.00,,,0.00,,2013-03-26 07:42:00,
2013-03-26 02:52:00,16.0,14.0,-100.00,North,355,6.0,9.0,95,0.00,,,0.00,,2013-03-26 07:52:00,
2013-03-26 03:02:00,14.0,14.0,-100.00,North,355,6.0,7.0,95,0.00,,,0.00,,2013-03-26 08:02:00,
2013-03-26 03:12:00,16.0,14.0,-100.00,North,0,7.0,11.0,96,0.00,,,0.00,,2013-03-26 08:12:00,
2013-03-26 03:22:00,15.0,14.0,-100.00,North,0,8.0,10.0,96,0.00,,,0.00,,2013-03-26 08:22:00,
2013-03-26 03:32:00,15.0,14.0,-100.00,North,0,6.0,9.0,96,0.00,,,0.00,,2013-03-26 08:32:00,
2013-03-26 03:42:00,15.0,14.0,-100.00,North,5,7.0,9.0,96,0.00,,,0.00,,2013-03-26 08:42:00,
2013-03-26 03:52:00,14.0,14.0,-100.00,North,350,6.0,7.0,96,0.00,,,0.00,,2013-03-26 08:52:00,
2013-03-26 04:02:00,13.0,12.0,-100.00,NW,325,2.0,6.0,96,0.00,,,0.00,,2013-03-26 09:02:00,
2013-03-26 04:12:00,12.0,10.0,-100.00,NW,325,1.0,3.0,96,0.00,,,0.00,,2013-03-26 09:12:00,
2013-03-26 04:22:00,12.0,10.0,-100.00,NNW,335,0.0,3.0,96,0.00,,,0.00,,2013-03-26 09:22:00,
2013-03-26 04:33:00,12.0,10.0,-100.00,NE,40,1.0,2.0,96,0.00,,,0.00,,2013-03-26 09:33:00,
2013-03-26 04:42:00,12.0,10.0,-100.00,NNE,30,0.0,2.0,96,0.00,,,0.00,,2013-03-26 09:42:00,
2013-03-26 04:52:00,13.0,12.0,-100.00,NW,315,3.0,4.0,97,0.00,,,0.00,,2013-03-26 09:52:00,
2013-03-26 05:02:00,13.0,12.0,-100.00,NW,310,1.0,4.0,97,0.00,,,0.00,,2013-03-26 10:02:00,
2013-03-26 05:12:00,13.0,12.0,-100.00,West,260,2.0,4.0,97,0.00,,,0.00,,2013-03-26 10:12:00,
2013-03-26 05:22:00,13.0,12.0,-100.00,WSW,245,2.0,4.0,97,0.00,,,0.00,,2013-03-26 10:22:00,
2013-03-26 05:32:00,11.0,10.0,-100.00,WSW,240,1.0,4.0,97,0.00,,,0.00,,2013-03-26 10:32:00,
2013-03-26 05:42:00,11.0,10.0,-100.00,SW,235,2.0,2.0,97,0.00,,,0.00,,2013-03-26 10:42:00,
2013-03-26 05:52:00,11.0,10.0,-100.00,WSW,245,2.0,2.0,97,0.00,,,0.00,,2013-03-26 10:52:00,
2013-03-26 06:03:00,11.0,10.0,-100.00,WSW,245,1.0,2.0,97,0.00,,,0.00,,2013-03-26 11:03:00,
2013-03-26 06:12:00,10.0,10.0,-100.00,WSW,255,2.0,2.0,97,0.00,,,0.00,,2013-03-26 11:12:00,
2013-03-26 06:32:00,10.0,9.0,-100.00,SW,220,1.0,2.0,97,0.00,,,0.00,,2013-03-26 11:32:00,
2013-03-26 06:42:00,10.0,9.0,-100.00,SW,220,1.0,1.0,97,0.00,,,0.00,,2013-03-26 11:42:00,
2013-03-26 06:52:00,9.0,9.0,-100.00,WSW,245,1.0,2.0,97,0.00,,,0.00,,2013-03-26 11:52:00,
2013-03-26 07:03:00,9.0,9.0,-100.00,SW,235,1.0,2.0,98,0.00,,,0.00,,2013-03-26 12:03:00,
2013-03-26 07:12:00,9.0,9.0,-100.00,WSW,240,2.0,2.0,98,0.00,,,0.00,,2013-03-26 12:12:00,
2013-03-26 07:22:00,9.0,9.0,-100.00,SW,230,2.0,3.0,98,0.00,,,0.00,,2013-03-26 12:22:00,
2013-03-26 07:52:00,9.0,9.0,-100.00,WSW,245,2.0,3.0,98,0.00,,,0.00,,2013-03-26 12:52:00,
2013-03-26 08:03:00,10.0,9.0,-100.00,WSW,245,2.0,4.0,98,0.00,,,0.00,,2013-03-26 13:03:00,
2013-03-26 08:22:00,11.0,10.0,-100.00,WSW,250,1.0,3.0,98,0.00,,,0.00,,2013-03-26 13:22:00,
2013-03-26 08:32:00,13.0,12.0,-100.00,WSW,240,1.0,2.0,98,0.00,,,0.00,,2013-03-26 13:32:00,
2013-03-26 08:42:00,14.0,14.0,-100.00,West,260,1.0,1.0,98,0.00,,,0.00,,2013-03-26 13:42:00,
2013-03-26 08:52:00,16.0,16.0,-100.00,WSW,245,1.0,2.0,98,0.00,,,0.00,,2013-03-26 13:52:00,
2013-03-26 09:02:00,16.0,16.0,-100.00,WNW,290,2.0,4.0,98,0.00,,,0.00,,2013-03-26 14:02:00,
2013-03-26 09:11:00,17.0,16.0,-100.00,NNW,340,1.0,4.0,98,0.00,,,0.00,,2013-03-26 14:11:00,
2013-03-26 09:22:00,18.0,18.0,-100.00,North,355,2.0,6.0,98,0.00,,,0.00,,2013-03-26 14:22:00,
2013-03-26 09:32:00,18.0,18.0,-100.00,North,350,3.0,6.0,98,0.00,,,0.00,,2013-03-26 14:32:00,
2013-03-26 09:52:00,20.0,19.0,-100.00,North,0,4.0,6.0,97,0.00,,,0.00,,2013-03-26 14:52:00,
2013-03-26 10:02:00,21.0,19.0,-100.00,NNW,330,4.0,7.0,96,0.00,,,0.00,,2013-03-26 15:02:00,
2013-03-26 10:12:00,22.0,21.0,-100.00,WNW,290,3.0,6.0,95,0.00,,,0.00,,2013-03-26 15:12:00,
2013-03-26 10:22:00,21.0,19.0,-100.00,West,275,4.0,7.0,93,0.00,,,0.00,,2013-03-26 15:22:00,
2013-03-26 10:33:00,22.0,19.0,-100.00,WNW,290,6.0,9.0,90,0.00,,,0.00,,2013-03-26 15:33:00,
2013-03-26 10:42:00,23.0,19.0,-100.00,West,280,6.0,7.0,87,0.00,,,0.00,,2013-03-26 15:42:00,
2013-03-26 10:52:00,23.0,19.0,-100.00,NW,315,4.0,7.0,84,0.00,,,0.00,,2013-03-26 15:52:00,
2013-03-26 11:02:00,25.0,19.0,-100.00,NW,305,3.0,6.0,80,0.00,,,0.00,,2013-03-26 16:02:00,
2013-03-26 11:12:00,24.0,18.0,-100.00,WNW,290,6.0,8.0,78,0.00,,,0.00,,2013-03-26 16:12:00,
2013-03-26 11:22:00,25.0,18.0,-100.00,West,275,4.0,9.0,74,0.00,,,0.00,,2013-03-26 16:22:00,
2013-03-26 11:32:00,27.0,19.0,-100.00,SW,235,0.0,8.0,71,0.00,,,0.00,,2013-03-26 16:32:00,
2013-03-26 11:42:00,28.0,19.0,-100.00,SW,220,2.0,9.0,68,0.00,,,0.00,,2013-03-26 16:42:00,
2013-03-26 11:53:00,31.0,19.0,-100.00,SW,215,4.0,7.0,64,0.00,,,0.00,,2013-03-26 16:53:00,
2013-03-26 12:02:00,30.0,19.0,-100.00,South,185,1.0,6.0,62,0.00,,,0.00,,2013-03-26 17:02:00,
2013-03-26 12:12:00,32.0,19.0,-100.00,WSW,245,4.0,6.0,58,0.00,,,0.00,,2013-03-26 17:12:00,
2013-03-26 12:22:00,32.0,18.0,-100.00,SSE,155,4.0,6.0,55,0.00,,,0.00,,2013-03-26 17:22:00,
2013-03-26 12:32:00,31.0,18.0,-100.00,ESE,110,3.0,6.0,56,0.00,,,0.00,,2013-03-26 17:32:00,
2013-03-26 12:42:00,32.0,18.0,-100.00,SSW,200,2.0,6.0,55,0.00,,,0.00,,2013-03-26 17:42:00,
2013-03-26 12:52:00,33.0,18.0,-100.00,SSW,210,4.0,8.0,52,0.00,,,0.00,,2013-03-26 17:52:00,
2013-03-26 13:02:00,33.0,18.0,-100.00,NW,305,2.0,7.0,52,0.00,,,0.00,,2013-03-26 18:02:00,
2013-03-26 13:12:00,33.0,16.0,-100.00,WSW,250,3.0,7.0,50,0.00,,,0.00,,2013-03-26 18:12:00,
2013-03-26 13:23:00,33.0,18.0,-100.00,West,260,6.0,9.0,50,0.00,,,0.00,,2013-03-26 18:23:00,
2013-03-26 13:33:00,34.0,18.0,-100.00,SSW,195,4.0,9.0,49,0.00,,,0.00,,2013-03-26 18:33:00,
2013-03-26 13:42:00,33.0,16.0,-100.00,SSE,165,6.0,11.0,50,0.00,,,0.00,,2013-03-26 18:42:00,
2013-03-26 13:52:00,34.0,18.0,-100.00,West,260,1.0,9.0,51,0.00,,,0.00,,2013-03-26 18:52:00,
2013-03-26 14:02:00,36.0,18.0,-100.00,SW,220,4.0,9.0,48,0.00,,,0.00,,2013-03-26 19:02:00,
2013-03-26 14:12:00,35.0,18.0,-100.00,SSW,210,7.0,11.0,48,0.00,,,0.00,,2013-03-26 19:12:00,
2013-03-26 14:22:00,35.0,18.0,-100.00,SSW,210,5.0,9.0,48,0.00,,,0.00,,2013-03-26 19:22:00,
2013-03-26 14:32:00,35.0,18.0,-100.00,SW,230,2.0,10.0,48,0.00,,,0.00,,2013-03-26 19:32:00,
2013-03-26 14:42:00,35.0,18.0,-100.00,SSW,200,7.0,10.0,47,0.00,,,0.00,,2013-03-26 19:42:00,
2013-03-26 14:52:00,33.0,16.0,-100.00,South,175,3.0,9.0,49,0.00,,,0.00,,2013-03-26 19:52:00,
2013-03-26 15:02:00,36.0,18.0,-100.00,SW,235,7.0,11.0,47,0.00,,,0.00,,2013-03-26 20:02:00,
2013-03-26 15:12:00,37.0,18.0,-100.00,SW,215,6.0,11.0,47,0.00,,,0.00,,2013-03-26 20:12:00,
2013-03-26 15:22:00,35.0,18.0,-100.00,SSE,150,7.0,11.0,47,0.00,,,0.00,,2013-03-26 20:22:00,
2013-03-26 15:32:00,35.0,18.0,-100.00,SSW,200,1.0,11.0,49,0.00,,,0.00,,2013-03-26 20:32:00,
2013-03-26 15:42:00,34.0,18.0,-100.00,SE,135,4.0,9.0,49,0.00,,,0.00,,2013-03-26 20:42:00,
2013-03-26 15:52:00,37.0,19.0,-100.00,SW,215,2.0,8.0,47,0.00,,,0.00,,2013-03-26 20:52:00,
2013-03-26 16:02:00,34.0,16.0,-100.00,SSE,165,4.0,11.0,48,0.00,,,0.00,,2013-03-26 21:02:00,
2013-03-26 16:12:00,36.0,18.0,-100.00,South,185,9.0,16.0,47,0.00,,,0.00,,2013-03-26 21:12:00,
2013-03-26 16:22:00,36.0,18.0,-100.00,SSW,200,4.0,12.0,47,0.00,,,0.00,,2013-03-26 21:22:00,
2013-03-26 16:32:00,35.0,18.0,-100.00,South,175,10.0,12.0,48,0.00,,,0.00,,2013-03-26 21:32:00,
2013-03-26 16:42:00,36.0,18.0,-100.00,SE,125,0.0,11.0,47,0.00,,,0.00,,2013-03-26 21:42:00,
2013-03-26 16:52:00,35.0,16.0,-100.00,SE,130,4.0,9.0,46,0.00,,,0.00,,2013-03-26 21:52:00,
2013-03-26 17:02:00,36.0,18.0,-100.00,SSE,155,9.0,13.0,46,0.00,,,0.00,,2013-03-26 22:02:00,
2013-03-26 17:12:00,36.0,18.0,-100.00,SSW,195,5.0,13.0,46,0.00,,,0.00,,2013-03-26 22:12:00,
2013-03-26 17:22:00,38.0,19.0,-100.00,SSW,210,5.0,11.0,45,0.00,,,0.00,,2013-03-26 22:22:00,
2013-03-26 17:33:00,37.0,18.0,-100.00,SSE,165,6.0,11.0,44,0.00,,,0.00,,2013-03-26 22:33:00,
2013-03-26 17:42:00,36.0,18.0,-100.00,South,175,6.0,12.0,45,0.00,,,0.00,,2013-03-26 22:42:00,
2013-03-26 17:52:00,35.0,18.0,-100.00,South,185,6.0,12.0,46,0.00,,,0.00,,2013-03-26 22:52:00,
2013-03-26 18:01:00,36.0,18.0,-100.00,SSW,205,6.0,9.0,45,0.00,,,0.00,,2013-03-26 23:01:00,
2013-03-26 18:10:00,36.0,18.0,-100.00,South,175,7.0,11.0,45,0.00,,,0.00,,2013-03-26 23:10:00,
2013-03-26 18:22:00,35.0,16.0,-100.00,SSW,195,6.0,11.0,46,0.00,,,0.00,,2013-03-26 23:22:00,
2013-03-26 18:32:00,34.0,16.0,-100.00,SSE,165,7.0,10.0,47,0.00,,,0.00,,2013-03-26 23:32:00,
2013-03-26 18:42:00,35.0,18.0,-100.00,SSE,155,6.0,10.0,47,0.00,,,0.00,,2013-03-26 23:42:00,
2013-03-26 18:52:00,34.0,18.0,-100.00,South,170,7.0,9.0,49,0.00,,,0.00,,2013-03-26 23:52:00,
2013-03-26 19:02:00,34.0,18.0,-100.00,SSE,160,9.0,9.0,50,0.00,,,0.00,,2013-03-27 00:02:00,
2013-03-26 19:12:00,34.0,18.0,-100.00,SSE,160,9.0,12.0,51,0.00,,,0.00,,2013-03-27 00:12:00,
2013-03-26 19:22:00,33.0,18.0,-100.00,SSE,165,7.0,9.0,53,0.00,,,0.00,,2013-03-27 00:22:00,
2013-03-26 19:32:00,32.0,19.0,-100.00,SSE,160,8.0,11.0,56,0.00,,,0.00,,2013-03-27 00:32:00,
2013-03-26 19:42:00,31.0,19.0,-100.00,SSE,150,8.0,9.0,60,0.00,,,0.00,,2013-03-27 00:42:00,
2013-03-26 19:52:00,31.0,19.0,-100.00,SSE,150,9.0,10.0,62,0.00,,,0.00,,2013-03-27 00:52:00,
2013-03-26 20:02:00,30.0,21.0,-100.00,SSE,150,9.0,10.0,66,0.00,,,0.00,,2013-03-27 01:02:00,
2013-03-26 20:12:00,30.0,21.0,-100.00,SSE,155,9.0,9.0,68,0.00,,,0.00,,2013-03-27 01:12:00,
2013-03-26 20:22:00,29.0,21.0,-100.00,SSE,165,7.0,9.0,70,0.00,,,0.00,,2013-03-27 01:22:00,
2013-03-26 20:33:00,29.0,21.0,-100.00,SSE,165,7.0,9.0,72,0.00,,,0.00,,2013-03-27 01:33:00,
2013-03-26 20:42:00,29.0,21.0,-100.00,South,170,7.0,8.0,74,0.00,,,0.00,,2013-03-27 01:42:00,
2013-03-26 20:52:00,29.0,21.0,-100.00,SSE,165,7.0,8.0,74,0.00,,,0.00,,2013-03-27 01:52:00,
2013-03-26 21:02:00,29.0,21.0,-100.00,South,170,6.0,7.0,75,0.00,,,0.00,,2013-03-27 02:02:00,
2013-03-26 21:12:00,29.0,23.0,-100.00,South,170,6.0,7.0,76,0.00,,,0.00,,2013-03-27 02:12:00,
2013-03-26 21:22:00,29.0,23.0,-100.00,South,170,7.0,7.0,77,0.00,,,0.00,,2013-03-27 02:22:00,
2013-03-26 21:32:00,29.0,23.0,-100.00,SSE,165,7.0,9.0,77,0.00,,,0.00,,2013-03-27 02:32:00,
2013-03-26 21:42:00,28.0,23.0,-100.00,SSE,165,8.0,9.0,78,0.00,,,0.00,,2013-03-27 02:42:00,
2013-03-26 21:52:00,28.0,23.0,-100.00,SSE,165,8.0,9.0,79,0.00,,,0.00,,2013-03-27 02:52:00,
2013-03-26 22:02:00,28.0,23.0,-100.00,SSE,160,9.0,10.0,80,0.00,,,0.00,,2013-03-27 03:02:00,
2013-03-26 22:12:00,28.0,23.0,-100.00,SSE,155,9.0,9.0,81,0.00,,,0.00,,2013-03-27 03:12:00,
2013-03-26 22:22:00,29.0,23.0,-100.00,SSE,150,9.0,11.0,80,0.00,,,0.00,,2013-03-27 03:22:00,
2013-03-26 22:33:00,29.0,23.0,-100.00,SSE,150,9.0,11.0,81,0.00,,,0.00,,2013-03-27 03:33:00,
2013-03-26 22:42:00,28.0,25.0,-100.00,SSE,150,10.0,11.0,83,0.00,,,0.00,,2013-03-27 03:42:00,
2013-03-26 22:52:00,29.0,25.0,-100.00,SSE,155,12.0,13.0,84,0.00,,,0.00,,2013-03-27 03:52:00,
2013-03-26 23:02:00,28.0,25.0,-100.00,SSE,160,11.0,14.0,85,0.00,,,0.00,,2013-03-27 04:02:00,
2013-03-26 23:12:00,28.0,25.0,-100.00,SSE,155,11.0,12.0,86,0.00,,,0.00,,2013-03-27 04:12:00,
2013-03-26 23:23:00,28.0,25.0,-100.00,SSE,155,11.0,12.0,88,0.00,,,0.00,,2013-03-27 04:23:00,
2013-03-26 23:33:00,28.0,25.0,-100.00,SSE,150,11.0,13.0,88,0.00,,,0.00,,2013-03-27 04:33:00,
2013-03-26 23:42:00,28.0,25.0,-100.00,SSE,155,12.0,14.0,87,0.00,,,0.00,,2013-03-27 04:42:00,
2013-03-26 23:52:00,28.0,25.0,-100.00,SSE,150,12.0,14.0,87,0.00,,,0.00,,2013-03-27 04:52:00,